WXM80 ListenWXM80 Stop

You find our weather info also at:

UK Metoffice

WeatherCloud

Weather Underground

Northeastern Weather Network

AWEKAS

Citizen Weather Observer Program (CWOP)

HAMweather, WeatherForYou, PWS Weather


Weather Underground History page Text

Daily Summary for October 9, 2016 Units:  English    Metric   Both
« Previous Day
Next Day »
Daily Weekly Monthly Yearly Custom
  High: Low: Average:
Temperature: 65.7 °F 53.6 °F 57.1 °F
Dew Point: 64.5 °F 45.0 °F 54.3 °F
Humidity: 97 % 71 % 91 %
Wind Speed: 14.4 mph 0.0 mph 7.2 mph
Wind Gust: 25.3 mph - -
Wind:- - East
Pressure: 30.05 in 29.90 in -
Precipitation: 0.97 in    
Historical Graphs
 
 
Tabular Data for October 9, 2016
Time Temperature Dew Point Pressure Wind Wind Speed Wind Gust Humidity Rainfall Rate (Hourly)
00:03 65.7 °F 64.5 °F 29.95 in North 0.8 mph 2.3 mph 96 % 0.01 in
00:08 65.6 °F 64.4 °F 29.95 in Calm   1.2 mph 96 % 0.03 in
00:13 65.6 °F 64.4 °F 29.95 in Calm     96 % 0.04 in
00:18 65.6 °F 64.4 °F 29.95 in North 0.1 mph 2.3 mph 96 % 0.04 in
00:23 65.5 °F 64.3 °F 29.95 in North 0.1 mph 1.0 mph 96 % 0.03 in
00:28 65.4 °F 64.2 °F 29.95 in Calm     96 % 0.04 in
00:33 65.4 °F 64.2 °F 29.94 in Calm     96 % 0.05 in
00:39 65.3 °F 64.1 °F 29.94 in Calm     96 % 0.06 in
00:44 65.3 °F 64.1 °F 29.95 in North 1.5 mph 3.5 mph 96 % 0.06 in
00:49 65.2 °F 64.0 °F 29.94 in North 0.7 mph 2.3 mph 96 % 0.07 in
00:54 65.1 °F 63.9 °F 29.95 in Calm     96 % 0.07 in
00:59 65.1 °F 63.9 °F 29.95 in Calm     96 % 0.08 in
01:04 65.0 °F 63.8 °F 29.95 in North 0.5 mph 2.3 mph 96 % 0.07 in
01:09 64.9 °F 63.7 °F 29.95 in North 1.5 mph 2.3 mph 96 % 0.08 in
01:14 64.9 °F 63.7 °F 29.95 in Calm     96 % 0.08 in
01:19 64.8 °F 63.6 °F 29.94 in Calm     96 % 0.11 in
01:24 64.8 °F 63.6 °F 29.94 in North 1.1 mph 2.3 mph 96 % 0.13 in
01:30 64.7 °F 63.5 °F 29.93 in Calm     96 % 0.12 in
01:35 64.7 °F 63.5 °F 29.93 in North 0.8 mph 3.5 mph 96 % 0.11 in
01:40 64.7 °F 63.5 °F 29.93 in North 1.4 mph 3.5 mph 96 % 0.11 in
01:45 64.7 °F 63.5 °F 29.93 in North 0.1 mph 1.2 mph 96 % 0.11 in
01:50 64.6 °F 63.4 °F 29.94 in Calm   1.2 mph 96 % 0.10 in
01:55 64.6 °F 63.4 °F 29.93 in Calm     96 % 0.11 in
02:00 64.6 °F 63.4 °F 29.94 in Calm     96 % 0.10 in
02:05 64.6 °F 63.7 °F 29.93 in Calm     97 % 0.10 in
02:10 64.6 °F 63.7 °F 29.94 in Calm     97 % 0.09 in
02:15 64.5 °F 63.6 °F 29.93 in North 0.4 mph 2.0 mph 97 % 0.07 in
02:21 64.5 °F 63.6 °F 29.92 in North 1.0 mph 4.0 mph 97 % 0.00 in
02:25 64.5 °F 63.6 °F 29.92 in North 1.0 mph 4.0 mph 97 % 0.00 in
02:30 64.5 °F 63.6 °F 29.92 in North 1.0 mph 3.5 mph 97 % 0.04 in
02:35 64.5 °F 63.6 °F 29.93 in Calm   2.0 mph 97 % 0.00 in
02:40 64.5 °F 63.6 °F 29.93 in North 2.0 mph 4.0 mph 97 % 0.00 in
02:45 64.5 °F 63.7 °F 29.92 in North 1.0 mph 5.0 mph 97 % 0.00 in
02:50 64.6 °F 63.7 °F 29.91 in NNE 2.0 mph 5.0 mph 97 % 0.00 in
02:55 64.7 °F 63.8 °F 29.90 in NNE 2.0 mph 6.0 mph 97 % 0.01 in
03:00 64.7 °F 63.8 °F 29.90 in North 1.5 mph 4.6 mph 97 % 0.05 in
03:05 64.7 °F 63.8 °F 29.90 in NNE 2.0 mph 5.0 mph 97 % 0.00 in
03:11 64.6 °F 63.7 °F 29.90 in Calm   6.0 mph 97 % 0.00 in
03:15 64.6 °F 63.7 °F 29.90 in Calm   5.0 mph 97 % 0.00 in
03:20 64.6 °F 63.7 °F 29.91 in Calm   4.0 mph 97 % 0.00 in
03:25 64.5 °F 63.6 °F 29.90 in NNE 3.0 mph 5.0 mph 97 % 0.00 in
03:30 64.5 °F 63.6 °F 29.90 in NNE 1.5 mph 4.6 mph 97 % 0.06 in
03:35 64.4 °F 63.5 °F 29.91 in NNE 2.0 mph 8.0 mph 97 % 0.00 in
03:40 64.4 °F 63.5 °F 29.91 in NNE 3.0 mph 12.0 mph 97 % 0.00 in
03:45 64.1 °F 62.9 °F 29.91 in North 7.0 mph 14.0 mph 96 % 0.00 in
03:50 63.4 °F 62.2 °F 29.91 in NNW 6.0 mph 12.0 mph 96 % 0.00 in
03:55 62.5 °F 61.0 °F 29.92 in North 7.0 mph 15.0 mph 95 % 0.00 in
04:01 61.6 °F 59.9 °F 29.92 in NE 10.4 mph 18.0 mph 94 % 0.05 in
04:05 61.0 °F 59.3 °F 29.93 in NNE 8.0 mph 18.0 mph 94 % 0.01 in
04:10 60.5 °F 58.8 °F 29.92 in NNE 10.0 mph 16.0 mph 94 % 0.00 in
04:15 60.2 °F 58.7 °F 29.92 in NNE 12.0 mph 16.0 mph 95 % 0.00 in
04:20 60.0 °F 58.5 °F 29.93 in NNE 6.0 mph 12.0 mph 95 % 0.01 in
04:25 59.8 °F 58.4 °F 29.94 in NE 8.0 mph 17.0 mph 95 % 0.00 in
04:30 59.6 °F 58.1 °F 29.94 in NNE 9.0 mph 17.0 mph 95 % 0.00 in
04:35 59.3 °F 57.9 °F 29.94 in NNE 8.0 mph 14.0 mph 95 % 0.00 in
04:40 59.2 °F 57.8 °F 29.93 in NNE 2.0 mph 12.0 mph 95 % 0.00 in
04:45 59.1 °F 58.0 °F 29.94 in NNE 7.0 mph 13.0 mph 96 % 0.00 in
04:50 59.0 °F 57.6 °F 29.94 in North 3.0 mph 12.0 mph 95 % 0.00 in
04:55 58.9 °F 57.8 °F 29.94 in NNE 7.0 mph 12.0 mph 96 % 0.00 in
05:01 58.7 °F 57.6 °F 29.95 in NNW 3.5 mph 10.4 mph 96 % 0.05 in
05:05 58.6 °F 57.5 °F 29.95 in NNE 6.0 mph 12.0 mph 96 % 0.00 in
05:10 58.5 °F 57.4 °F 29.95 in NNE 6.0 mph 14.0 mph 96 % 0.00 in
05:15 58.3 °F 57.2 °F 29.95 in North 7.0 mph 16.0 mph 96 % 0.00 in
05:20 58.2 °F 56.8 °F 29.95 in North 6.4 mph 9.2 mph 95 % 0.05 in
05:25 58.2 °F 56.8 °F 29.95 in North 6.0 mph 12.0 mph 95 % 0.00 in
05:30 58.0 °F 56.6 °F 29.95 in NNE 5.0 mph 15.0 mph 95 % 0.00 in
05:41 57.9 °F 56.5 °F 29.95 in North 8.0 mph 13.0 mph 95 % 0.00 in
05:46 57.8 °F 56.7 °F 29.94 in ENE 4.8 mph 12.7 mph 96 % 0.04 in
05:51 57.8 °F 56.7 °F 29.94 in North 8.0 mph 13.0 mph 96 % 0.00 in
05:56 57.7 °F 56.3 °F 29.94 in North 8.0 mph 14.0 mph 95 % 0.00 in
06:01 57.7 °F 56.6 °F 29.94 in ENE 8.2 mph 12.0 mph 96 % 0.04 in
06:06 57.6 °F 56.5 °F 29.94 in North 6.0 mph 15.0 mph 96 % 0.00 in
06:11 57.6 °F 56.5 °F 29.94 in NNE 9.0 mph 15.0 mph 96 % 0.00 in
06:16 57.5 °F 56.4 °F 29.94 in NNE 4.9 mph 4.9 mph 96 % 0.03 in
06:26 57.6 °F 56.5 °F 29.95 in North 3.4 mph 8.1 mph 96 % 0.04 in
06:31 57.6 °F 56.5 °F 29.95 in North 4.7 mph 8.1 mph 96 % 0.03 in
06:36 57.5 °F 56.4 °F 29.96 in NNE 4.3 mph 9.2 mph 96 % 0.03 in
06:41 57.5 °F 56.4 °F 29.96 in ENE 3.3 mph 6.0 mph 96 % 0.04 in
06:46 57.5 °F 56.4 °F 29.95 in NE 2.9 mph 4.6 mph 96 % 0.03 in
06:51 57.4 °F 56.3 °F 29.95 in NNE 6.0 mph 11.5 mph 96 % 0.04 in
06:56 57.4 °F 56.3 °F 29.95 in NNE 3.7 mph 6.9 mph 96 % 0.04 in
07:01 57.3 °F 56.2 °F 29.95 in NNE 6.4 mph 12.7 mph 96 % 0.03 in
07:06 57.3 °F 56.2 °F 29.95 in North 6.8 mph 11.5 mph 96 % 0.04 in
07:11 57.2 °F 56.1 °F 29.95 in NNE 5.8 mph 10.0 mph 96 % 0.04 in
07:17 57.2 °F 56.1 °F 29.96 in NNE 7.7 mph 12.7 mph 96 % 0.04 in
07:22 57.1 °F 56.0 °F 29.96 in NNE 4.2 mph 11.5 mph 96 % 0.04 in
07:27 57.1 °F 56.0 °F 29.96 in NNE 6.5 mph 9.2 mph 96 % 0.04 in
07:32 57.1 °F 56.0 °F 29.97 in North 8.4 mph 13.8 mph 96 % 0.05 in
07:37 57.1 °F 56.0 °F 29.97 in NNE 4.9 mph 8.1 mph 96 % 0.05 in
07:42 57.1 °F 56.0 °F 29.97 in North 7.5 mph 10.4 mph 96 % 0.04 in
07:47 57.1 °F 56.0 °F 29.97 in NE 6.2 mph 10.4 mph 96 % 0.05 in
07:52 57.2 °F 56.1 °F 29.97 in North 7.8 mph 10.0 mph 96 % 0.04 in
07:57 57.1 °F 56.0 °F 29.98 in North 5.4 mph 9.2 mph 96 % 0.04 in
08:02 57.0 °F 55.9 °F 29.98 in NNE 6.3 mph 10.4 mph 96 % 0.04 in
08:08 56.9 °F 55.8 °F 29.98 in North 3.7 mph 6.9 mph 96 % 0.05 in
08:13 56.9 °F 55.8 °F 29.98 in North 8.7 mph 14.0 mph 96 % 0.05 in
08:18 56.9 °F 55.8 °F 29.98 in NNE 3.5 mph 9.2 mph 96 % 0.05 in
08:23 56.8 °F 55.7 °F 29.98 in NNE 7.7 mph 12.0 mph 96 % 0.05 in
08:28 56.6 °F 55.2 °F 29.98 in NNW 6.1 mph 11.0 mph 95 % 0.05 in
08:33 56.5 °F 55.1 °F 29.98 in NNE 8.9 mph 15.0 mph 95 % 0.04 in
08:38 56.3 °F 54.9 °F 29.98 in North 7.6 mph 12.7 mph 95 % 0.05 in
08:43 56.1 °F 54.4 °F 29.98 in NNE 8.5 mph 11.0 mph 94 % 0.05 in
08:48 55.9 °F 54.5 °F 29.98 in NE 6.5 mph 10.4 mph 95 % 0.04 in
08:53 55.9 °F 54.5 °F 29.98 in North 8.9 mph 10.4 mph 95 % 0.05 in
08:59 55.8 °F 54.4 °F 29.98 in NNW 7.9 mph 12.7 mph 95 % 0.04 in
09:04 55.7 °F 54.3 °F 29.98 in North 9.4 mph 11.5 mph 95 % 0.04 in
09:09 55.5 °F 53.8 °F 29.98 in NNW 11.2 mph 18.4 mph 94 % 0.04 in
09:14 55.3 °F 53.6 °F 29.98 in North 7.8 mph 15.0 mph 94 % 0.04 in
09:19 55.2 °F 53.5 °F 29.98 in NNE 7.5 mph 16.1 mph 94 % 0.03 in
09:24 55.0 °F 53.3 °F 29.98 in NNE 7.7 mph 13.0 mph 94 % 0.03 in
09:29 55.0 °F 53.3 °F 29.98 in North 8.1 mph 11.5 mph 94 % 0.03 in
09:34 54.8 °F 53.1 °F 29.97 in NNW 9.2 mph 12.7 mph 94 % 0.04 in
09:39 54.7 °F 53.0 °F 29.97 in North 8.8 mph 12.7 mph 94 % 0.03 in
09:44 54.5 °F 52.8 °F 29.97 in NNE 10.3 mph 12.0 mph 94 % 0.03 in
09:49 54.4 °F 52.7 °F 29.97 in NNE 6.5 mph 13.0 mph 94 % 0.03 in
09:55 54.4 °F 52.7 °F 29.98 in NNW 5.2 mph 11.5 mph 94 % 0.03 in
10:00 54.3 °F 52.6 °F 29.98 in ENE 4.9 mph 11.5 mph 94 % 0.03 in
10:05 54.3 °F 52.6 °F 29.98 in North 7.9 mph 13.8 mph 94 % 0.03 in
10:10 54.2 °F 52.5 °F 29.99 in North 6.5 mph 10.4 mph 94 % 0.02 in
10:15 54.1 °F 52.4 °F 29.98 in West 5.4 mph 12.7 mph 94 % 0.03 in
10:20 54.1 °F 52.4 °F 29.99 in NNE 6.3 mph 11.5 mph 94 % 0.03 in
10:25 54.1 °F 52.7 °F 29.99 in NNW 7.1 mph 11.5 mph 95 % 0.03 in
10:30 54.0 °F 52.6 °F 29.99 in North 10.9 mph 12.7 mph 95 % 0.03 in
10:35 53.9 °F 52.5 °F 29.99 in North 9.3 mph 16.0 mph 95 % 0.03 in
10:40 53.9 °F 52.5 °F 29.99 in North 10.9 mph 18.4 mph 95 % 0.04 in
10:46 53.9 °F 52.5 °F 29.99 in North 8.0 mph 16.0 mph 95 % 0.00 in
10:51 54.0 °F 52.6 °F 29.99 in NNE 7.0 mph 18.0 mph 95 % 0.00 in
10:56 54.0 °F 52.6 °F 29.99 in NNE 7.0 mph 15.0 mph 95 % 0.00 in
11:01 54.0 °F 52.6 °F 29.98 in North 6.5 mph 16.1 mph 95 % 0.06 in
11:06 54.0 °F 52.6 °F 29.98 in North 9.0 mph 16.0 mph 95 % 0.00 in
11:11 53.9 °F 52.5 °F 29.98 in North 9.0 mph 17.0 mph 95 % 0.01 in
11:16 53.9 °F 52.5 °F 29.98 in North 9.0 mph 16.0 mph 95 % 0.00 in
11:21 54.0 °F 52.6 °F 29.98 in North 9.0 mph 16.0 mph 95 % 0.00 in
11:26 54.0 °F 52.6 °F 29.98 in NNE 12.0 mph 22.0 mph 95 % 0.00 in
11:31 54.0 °F 52.6 °F 29.98 in NNE 10.0 mph 17.0 mph 95 % 0.00 in
11:36 54.0 °F 52.6 °F 29.97 in NNE 8.0 mph 16.1 mph 95 % 0.06 in
11:41 54.0 °F 52.9 °F 29.97 in North 8.0 mph 15.0 mph 96 % 0.00 in
11:46 54.0 °F 52.9 °F 29.97 in NNE 8.0 mph 17.0 mph 96 % 0.00 in
11:51 54.0 °F 52.9 °F 29.97 in NNE 7.9 mph 15.0 mph 96 % 0.05 in
11:56 54.1 °F 53.0 °F 29.97 in NNE 8.0 mph 18.0 mph 96 % 0.00 in
12:01 54.2 °F 53.1 °F 29.97 in NNE 3.8 mph 10.4 mph 96 % 0.04 in
12:06 54.3 °F 53.2 °F 29.97 in NE 5.6 mph 11.5 mph 96 % 0.04 in
12:11 54.4 °F 53.3 °F 29.97 in NE 9.1 mph 12.7 mph 96 % 0.04 in
12:16 54.4 °F 53.3 °F 29.97 in NNE 8.2 mph 17.3 mph 96 % 0.05 in
12:21 54.4 °F 53.3 °F 29.97 in NNE 7.2 mph 11.5 mph 96 % 0.05 in
12:26 54.3 °F 53.2 °F 29.97 in NNE 7.9 mph 13.0 mph 96 % 0.06 in
12:31 54.4 °F 53.3 °F 29.97 in NNE 8.7 mph 15.0 mph 96 % 0.05 in
12:36 54.3 °F 53.2 °F 29.97 in NE 9.1 mph 16.1 mph 96 % 0.06 in
12:41 54.3 °F 53.2 °F 29.97 in North 5.5 mph 9.0 mph 96 % 0.05 in
12:46 54.3 °F 53.2 °F 29.97 in NNE 6.6 mph 11.5 mph 96 % 0.05 in
12:51 54.3 °F 53.2 °F 29.97 in NNE 9.1 mph 15.0 mph 96 % 0.06 in
12:57 54.2 °F 53.1 °F 29.97 in NE 9.9 mph 12.7 mph 96 % 0.06 in
13:02 54.3 °F 53.2 °F 29.97 in North 8.4 mph 11.5 mph 96 % 0.06 in
13:07 54.3 °F 53.2 °F 29.97 in NNW 6.7 mph 11.5 mph 96 % 0.07 in
13:12 54.2 °F 53.1 °F 29.97 in NNW 3.8 mph 10.4 mph 96 % 0.07 in
13:17 54.2 °F 53.1 °F 29.97 in NE 6.9 mph 11.0 mph 96 % 0.07 in
13:22 54.1 °F 53.0 °F 29.97 in NNE 9.6 mph 13.8 mph 96 % 0.09 in
13:27 54.1 °F 53.0 °F 29.96 in North 9.0 mph 13.0 mph 96 % 0.10 in
13:32 54.0 °F 52.9 °F 29.96 in NE 8.5 mph 14.0 mph 96 % 0.11 in
13:37 54.0 °F 52.9 °F 29.95 in NNE 9.3 mph 16.1 mph 96 % 0.12 in
13:42 54.0 °F 52.9 °F 29.96 in North 9.9 mph 15.0 mph 96 % 0.14 in
13:48 54.0 °F 52.9 °F 29.96 in WNW 11.5 mph 23.0 mph 96 % 0.15 in
13:53 54.0 °F 52.9 °F 29.95 in ENE 7.7 mph 18.0 mph 96 % 0.16 in
13:58 54.0 °F 52.9 °F 29.95 in NNW 8.9 mph 15.0 mph 96 % 0.18 in
14:03 54.0 °F 52.9 °F 29.96 in North 7.9 mph 13.8 mph 96 % 0.18 in
14:08 54.0 °F 52.9 °F 29.96 in NNE 8.2 mph 13.8 mph 96 % 0.18 in
14:13 54.0 °F 53.2 °F 29.96 in NNE 9.3 mph 15.0 mph 97 % 0.17 in
14:18 54.0 °F 53.2 °F 29.95 in NE 9.5 mph 14.0 mph 97 % 0.17 in
14:23 54.0 °F 53.2 °F 29.95 in NNE 7.6 mph 15.0 mph 97 % 0.18 in
14:28 54.0 °F 53.2 °F 29.95 in NE 8.2 mph 11.5 mph 97 % 0.17 in
14:33 54.1 °F 53.3 °F 29.95 in NE 8.7 mph 17.3 mph 97 % 0.17 in
14:39 54.1 °F 53.3 °F 29.94 in NE 7.4 mph 15.0 mph 97 % 0.16 in
14:44 54.1 °F 53.3 °F 29.94 in NNE 6.5 mph 13.0 mph 97 % 0.16 in
14:49 54.2 °F 53.4 °F 29.94 in NNW 9.7 mph 19.6 mph 97 % 0.14 in
14:54 54.2 °F 53.4 °F 29.94 in NNE 10.5 mph 16.1 mph 97 % 0.14 in
14:59 54.2 °F 53.4 °F 29.94 in NE 10.2 mph 19.6 mph 97 % 0.12 in
15:04 54.2 °F 53.4 °F 29.95 in NNE 9.1 mph 15.0 mph 97 % 0.11 in
15:09 54.2 °F 53.4 °F 29.95 in NE 5.9 mph 9.2 mph 97 % 0.10 in
15:14 54.2 °F 53.4 °F 29.96 in NE 3.7 mph 11.5 mph 97 % 0.09 in
15:19 54.3 °F 53.5 °F 29.96 in North 5.6 mph 11.5 mph 97 % 0.07 in
15:24 54.4 °F 53.6 °F 29.96 in ENE 10.2 mph 19.0 mph 97 % 0.06 in
15:30 54.4 °F 53.6 °F 29.96 in NNE 12.8 mph 19.6 mph 97 % 0.04 in
15:35 54.5 °F 53.7 °F 29.95 in NNE 8.7 mph 16.1 mph 97 % 0.03 in
15:40 54.4 °F 53.6 °F 29.95 in ENE 11.8 mph 18.4 mph 97 % 0.02 in
15:45 54.4 °F 53.6 °F 29.95 in North 6.5 mph 11.5 mph 97 % 0.01 in
15:50 54.5 °F 53.4 °F 29.95 in NNE 12.4 mph 19.6 mph 96 % 0.00 in
15:55 54.5 °F 53.4 °F 29.95 in NNE 9.3 mph 16.0 mph 96 % 0.00 in
16:00 54.5 °F 53.4 °F 29.95 in North 7.8 mph 13.8 mph 96 % 0.00 in
16:05 54.6 °F 53.5 °F 29.96 in NNE 10.1 mph 18.4 mph 96 % 0.00 in
16:10 54.6 °F 53.5 °F 29.96 in NNE 6.3 mph 12.7 mph 96 % 0.00 in
16:15 54.7 °F 53.6 °F 29.96 in North 10.6 mph 18.4 mph 96 % 0.00 in
16:21 54.7 °F 53.6 °F 29.96 in NNE 8.0 mph 14.0 mph 96 % 0.00 in
16:26 54.8 °F 53.6 °F 29.96 in NNE 9.0 mph 16.0 mph 96 % 0.00 in
16:31 54.7 °F 53.6 °F 29.96 in NNE 6.0 mph 15.0 mph 96 % 0.00 in
16:36 54.8 °F 53.7 °F 29.96 in North 7.0 mph 15.0 mph 96 % 0.00 in
16:40 54.8 °F 53.7 °F 29.96 in North 10.3 mph 13.8 mph 96 % 0.00 in
16:46 54.8 °F 53.4 °F 29.96 in NNE 10.0 mph 20.0 mph 95 % 0.00 in
16:51 54.9 °F 53.5 °F 29.96 in NNE 9.0 mph 18.0 mph 95 % 0.00 in
16:56 55.0 °F 53.6 °F 29.96 in NNE 10.3 mph 16.0 mph 95 % 0.00 in
17:01 55.1 °F 53.7 °F 29.97 in North 9.6 mph 18.4 mph 95 % 0.00 in
17:06 55.1 °F 53.7 °F 29.97 in NE 8.6 mph 15.0 mph 95 % 0.00 in
17:11 55.0 °F 53.3 °F 29.97 in North 6.9 mph 16.0 mph 94 % 0.00 in
17:16 55.0 °F 53.0 °F 29.97 in NE 6.7 mph 17.3 mph 93 % 0.00 in
17:21 55.0 °F 53.0 °F 29.97 in NNE 12.3 mph 19.6 mph 93 % 0.00 in
17:26 55.0 °F 52.7 °F 29.98 in North 9.2 mph 15.0 mph 92 % 0.00 in
17:31 55.0 °F 52.4 °F 29.98 in NNE 7.8 mph 11.5 mph 91 % 0.00 in
17:36 55.1 °F 52.2 °F 29.98 in NNE 9.0 mph 11.5 mph 90 % 0.00 in
17:41 55.1 °F 52.2 °F 29.98 in NNE 8.0 mph 11.5 mph 90 % 0.00 in
17:47 55.3 °F 52.1 °F 29.98 in NNE 10.8 mph 17.3 mph 89 % 0.00 in
17:52 55.4 °F 51.9 °F 29.98 in NE 9.5 mph 15.0 mph 88 % 0.00 in
17:57 55.5 °F 52.0 °F 29.98 in NNE 11.2 mph 16.1 mph 88 % 0.00 in
18:02 55.5 °F 51.4 °F 29.98 in NE 14.1 mph 17.3 mph 86 % 0.00 in
18:07 55.6 °F 51.2 °F 29.98 in NNE 9.7 mph 16.1 mph 85 % 0.00 in
18:12 55.7 °F 51.3 °F 29.98 in North 9.6 mph 15.0 mph 85 % 0.00 in
18:17 55.8 °F 51.0 °F 29.98 in NNW 6.8 mph 11.5 mph 84 % 0.00 in
18:22 55.9 °F 50.8 °F 29.98 in North 10.9 mph 15.0 mph 83 % 0.00 in
18:27 55.9 °F 50.8 °F 29.98 in North 10.9 mph 13.8 mph 83 % 0.00 in
18:32 56.0 °F 50.6 °F 29.98 in NE 9.7 mph 13.8 mph 82 % 0.00 in
18:38 56.1 °F 50.7 °F 29.98 in North 8.3 mph 12.7 mph 82 % 0.00 in
18:43 56.2 °F 50.1 °F 29.98 in NNW 12.7 mph 19.6 mph 80 % 0.00 in
18:48 56.3 °F 50.2 °F 29.98 in NE 11.7 mph 17.3 mph 80 % 0.00 in
18:53 56.4 °F 49.6 °F 29.98 in NE 11.8 mph 18.4 mph 78 % 0.00 in
18:58 56.5 °F 50.1 °F 29.99 in North 7.8 mph 12.7 mph 79 % 0.00 in
19:03 56.6 °F 49.5 °F 29.98 in NNE 10.8 mph 16.1 mph 77 % 0.00 in
19:08 56.6 °F 49.8 °F 29.98 in ENE 11.6 mph 15.0 mph 78 % 0.00 in
19:13 56.6 °F 49.5 °F 29.99 in NE 13.0 mph 19.6 mph 77 % 0.00 in
19:18 56.6 °F 49.1 °F 29.99 in North 10.9 mph 20.7 mph 76 % 0.00 in
19:23 56.6 °F 48.8 °F 29.99 in North 10.8 mph 19.6 mph 75 % 0.00 in
19:34 56.7 °F 48.5 °F 29.99 in NE 13.2 mph 24.2 mph 74 % 0.00 in
19:39 56.8 °F 48.2 °F 29.99 in NNW 13.7 mph 25.3 mph 73 % 0.00 in
19:44 56.9 °F 48.3 °F 29.99 in North 12.5 mph 18.4 mph 73 % 0.00 in
19:49 56.9 °F 48.3 °F 29.99 in NNE 11.8 mph 24.2 mph 73 % 0.00 in
19:54 56.8 °F 48.2 °F 29.99 in NNE 8.9 mph 18.4 mph 73 % 0.00 in
19:59 56.7 °F 48.5 °F 30.00 in NNW 12.3 mph 18.4 mph 74 % 0.00 in
20:04 56.6 °F 48.4 °F 30.00 in North 10.2 mph 14.0 mph 74 % 0.00 in
20:09 56.5 °F 48.3 °F 30.00 in North 5.5 mph 16.1 mph 74 % 0.00 in
20:14 56.4 °F 48.2 °F 30.00 in North 8.4 mph 18.4 mph 74 % 0.00 in
20:20 56.3 °F 48.5 °F 30.00 in North 7.6 mph 12.7 mph 75 % 0.00 in
20:25 56.3 °F 48.1 °F 30.00 in NNE 11.8 mph 18.4 mph 74 % 0.00 in
20:30 56.2 °F 48.0 °F 30.00 in NNE 12.8 mph 21.0 mph 74 % 0.00 in
20:35 56.2 °F 48.0 °F 30.00 in NNE 11.2 mph 19.6 mph 74 % 0.00 in
20:40 56.2 °F 48.0 °F 30.00 in NE 13.3 mph 19.0 mph 74 % 0.00 in
20:45 56.1 °F 48.3 °F 30.00 in North 11.4 mph 16.1 mph 75 % 0.00 in
20:50 56.0 °F 48.2 °F 30.01 in NNE 10.5 mph 16.1 mph 75 % 0.00 in
20:55 56.0 °F 48.2 °F 30.01 in NNE 12.8 mph 17.3 mph 75 % 0.00 in
21:00 55.9 °F 48.1 °F 30.01 in North 7.7 mph 12.0 mph 75 % 0.00 in
21:05 55.9 °F 48.1 °F 30.01 in North 7.4 mph 11.5 mph 75 % 0.00 in
21:11 55.8 °F 48.3 °F 30.01 in NNE 6.5 mph 12.7 mph 76 % 0.00 in
21:16 55.8 °F 48.3 °F 30.01 in NNE 7.0 mph 18.0 mph 76 % 0.00 in
21:21 55.7 °F 47.9 °F 30.01 in North 8.0 mph 18.0 mph 75 % 0.00 in
21:26 55.7 °F 47.9 °F 30.01 in NNE 8.0 mph 18.0 mph 75 % 0.00 in
21:31 55.6 °F 47.8 °F 30.01 in North 9.0 mph 15.0 mph 75 % 0.00 in
21:36 55.5 °F 47.3 °F 30.02 in NNE 8.0 mph 20.0 mph 74 % 0.00 in
21:41 55.5 °F 47.7 °F 30.02 in NNE 9.0 mph 15.0 mph 75 % 0.00 in
21:46 55.5 °F 47.3 °F 30.03 in NNE 7.0 mph 18.0 mph 74 % 0.00 in
21:51 55.4 °F 46.9 °F 30.02 in NNE 9.0 mph 20.0 mph 73 % 0.00 in
21:56 55.3 °F 46.8 °F 30.03 in NNE 8.0 mph 16.0 mph 73 % 0.00 in
22:01 55.2 °F 47.1 °F 30.03 in NE 7.4 mph 17.3 mph 74 % 0.00 in
22:06 55.0 °F 46.9 °F 30.03 in NNE 6.6 mph 16.1 mph 74 % 0.00 in
22:11 54.9 °F 46.4 °F 30.03 in North 5.9 mph 10.4 mph 73 % 0.00 in
22:16 54.8 °F 45.9 °F 30.04 in NE 10.9 mph 15.0 mph 72 % 0.00 in
22:21 54.8 °F 46.3 °F 30.04 in North 7.2 mph 12.7 mph 73 % 0.00 in
22:26 54.6 °F 45.8 °F 30.04 in North 12.0 mph 17.3 mph 72 % 0.00 in
22:31 54.6 °F 45.8 °F 30.04 in North 12.5 mph 18.4 mph 72 % 0.00 in
22:36 54.6 °F 45.8 °F 30.04 in NNE 12.1 mph 18.0 mph 72 % 0.00 in
22:41 54.6 °F 45.8 °F 30.04 in NE 9.2 mph 18.4 mph 72 % 0.00 in
22:47 54.6 °F 45.8 °F 30.04 in ENE 10.0 mph 17.3 mph 72 % 0.00 in
22:52 54.5 °F 45.7 °F 30.04 in NW 10.0 mph 18.4 mph 72 % 0.00 in
22:57 54.4 °F 45.6 °F 30.05 in NE 7.6 mph 11.5 mph 72 % 0.00 in
23:02 54.3 °F 45.8 °F 30.04 in NE 11.1 mph 19.6 mph 73 % 0.00 in
23:07 54.3 °F 45.8 °F 30.05 in NNE 14.4 mph 21.9 mph 73 % 0.00 in
23:12 54.2 °F 45.0 °F 30.04 in East 12.7 mph 17.3 mph 71 % 0.00 in
23:17 54.2 °F 45.0 °F 30.05 in ENE 9.2 mph 13.8 mph 71 % 0.00 in
23:22 54.1 °F 45.3 °F 30.05 in NNW 7.6 mph 12.0 mph 72 % 0.00 in
23:27 54.0 °F 45.2 °F 30.05 in North 12.8 mph 18.0 mph 72 % 0.00 in
23:32 54.0 °F 45.2 °F 30.05 in NNE 8.3 mph 17.3 mph 72 % 0.00 in
23:38 53.8 °F 45.3 °F 30.05 in NNE 8.3 mph 11.5 mph 73 % 0.00 in
23:43 53.8 °F 45.7 °F 30.05 in NNE 10.4 mph 15.0 mph 74 % 0.00 in
23:48 53.8 °F 45.3 °F 30.04 in NNW 8.5 mph 17.3 mph 73 % 0.00 in
23:53 53.7 °F 45.2 °F 30.05 in North 9.9 mph 19.0 mph 73 % 0.00 in
23:58 53.6 °F 45.2 °F 30.04 in North 11.8 mph 18.4 mph 73 % 0.00 in
Crab Meadow Weather
Compliments of Weather Underground - 3.25 mb

Script developed by  Jim McMurry - jmcmurry@mwt.net Adapted for the template by  Wim van der Kuil - Leuven-Template.eu

Weather Terms: Tornado - A violently rotating column of air, from a thunderstorm, in contact with the ground.